TimeEST,TemperatureF,Dew PointF,Humidity,Sea Level PressureIn,VisibilityMPH,Wind Direction,Wind SpeedMPH,Gust SpeedMPH,PrecipitationIn,Events,Conditions,WindDirDegrees,DateUTC
12:27 AM,28.4,26.6,93,30.01,1.0,NNE,5.8,-,0.02,Snow,Light Snow,30,2014-01-02 05:27:00
12:46 AM,26.6,24.8,93,30.00,1.5,NNE,8.1,-,0.03,Snow,Light Snow,20,2014-01-02 05:46:00
12:54 AM,27.0,25.0,92,30.02,1.2,NNE,9.2,-,0.04,Snow,Light Snow,20,2014-01-02 05:54:00
1:09 AM,26.6,24.8,93,30.00,1.2,North,8.1,-,0.01,Snow,Light Snow,10,2014-01-02 06:09:00
1:48 AM,24.8,24.8,100,29.98,1.0,NE,5.8,-,0.02,Snow,Light Snow,40,2014-01-02 06:48:00
1:54 AM,25.0,24.1,96,30.00,0.8,NNE,8.1,-,0.02,Snow,Light Snow,30,2014-01-02 06:54:00
2:27 AM,24.8,23.0,93,29.96,1.0,NE,10.4,-,0.03,Snow,Light Snow,40,2014-01-02 07:27:00
2:54 AM,24.1,21.9,91,29.98,0.8,NE,10.4,-,0.05,Snow,Light Snow,40,2014-01-02 07:54:00
3:14 AM,24.8,21.2,86,29.94,0.5,NE,9.2,-,0.02,Fog-Snow,Snow,40,2014-01-02 08:14:00
3:54 AM,23.0,21.0,92,29.96,0.8,NNE,8.1,-,0.08,Snow,Light Snow,30,2014-01-02 08:54:00
4:12 AM,21.2,21.2,100,29.93,1.0,NNE,10.4,-,0.02,Snow,Light Snow,20,2014-01-02 09:12:00
4:19 AM,21.2,21.2,100,29.93,0.8,NNE,8.1,-,0.03,Snow,Light Snow,20,2014-01-02 09:19:00
4:54 AM,21.0,19.0,92,29.93,0.8,North,9.2,-,0.06,Snow,Light Snow,10,2014-01-02 09:54:00
5:16 AM,21.2,19.4,93,29.90,0.8,North,10.4,-,0.02,Snow,Light Snow,10,2014-01-02 10:16:00
5:54 AM,19.9,17.1,89,29.93,0.8,North,11.5,-,0.05,Snow,Light Snow,10,2014-01-02 10:54:00
6:54 AM,19.0,16.0,88,29.94,0.8,North,10.4,-,0.03,Snow,Light Snow,350,2014-01-02 11:54:00
7:19 AM,17.6,15.8,93,29.92,0.8,North,11.5,-,0.01,Snow,Light Snow,350,2014-01-02 12:19:00
7:28 AM,17.6,15.8,93,29.91,0.8,North,10.4,-,0.02,Snow,Light Snow,360,2014-01-02 12:28:00
7:54 AM,18.0,15.1,88,29.95,0.8,North,13.8,-,0.03,Snow,Light Snow,350,2014-01-02 12:54:00
8:06 AM,17.6,15.8,93,29.92,0.8,North,12.7,-,0.00,Snow,Light Snow,350,2014-01-02 13:06:00
8:54 AM,17.1,14.0,88,29.96,0.8,North,16.1,23.0,0.01,Snow,Light Snow,350,2014-01-02 13:54:00
9:39 AM,17.6,12.2,79,29.95,0.8,North,16.1,23.0,0.00,Snow,Light Snow,360,2014-01-02 14:39:00
9:44 AM,17.6,12.2,79,29.95,2.0,North,15.0,25.3,0.00,Snow,Light Snow,360,2014-01-02 14:44:00
9:54 AM,17.1,12.9,84,29.99,2.0,North,16.1,24.2,0.00,Snow,Light Snow,350,2014-01-02 14:54:00
10:05 AM,17.6,12.2,79,29.96,1.2,North,23.0,28.8,0.00,Snow,Light Snow,360,2014-01-02 15:05:00
10:21 AM,17.6,12.2,79,29.97,2.0,North,12.7,24.2,0.00,Snow,Light Snow,360,2014-01-02 15:21:00
10:41 AM,17.6,10.4,73,29.98,3.0,North,16.1,25.3,0.00,Snow,Light Snow,360,2014-01-02 15:41:00
10:54 AM,17.1,12.0,81,30.02,3.0,North,13.8,23.0,0.03,Snow,Light Snow,360,2014-01-02 15:54:00
11:28 AM,17.6,10.4,73,30.00,2.0,North,17.3,-,0.00,Snow,Light Snow,360,2014-01-02 16:28:00
11:51 AM,17.6,10.4,73,30.00,3.0,North,13.8,23.0,0.00,Snow,Light Snow,350,2014-01-02 16:51:00
11:54 AM,17.1,10.9,77,30.03,5.0,North,17.3,23.0,0.00,Snow,Light Snow,360,2014-01-02 16:54:00
12:54 PM,17.1,10.0,74,30.03,4.0,North,15.0,-,0.00,Snow,Light Snow,350,2014-01-02 17:54:00
1:13 PM,15.8,10.4,79,29.99,2.0,North,15.0,28.8,0.00,Snow,Light Snow,10,2014-01-02 18:13:00
1:32 PM,15.8,10.4,79,30.00,1.2,North,15.0,-,0.00,Snow,Light Snow,350,2014-01-02 18:32:00
1:54 PM,16.0,10.0,77,30.04,1.8,NNW,19.6,-,0.00,Snow,Light Snow,340,2014-01-02 18:54:00
2:54 PM,15.1,10.0,80,30.07,1.0,North,18.4,-,0.00,Snow,Light Snow,350,2014-01-02 19:54:00
3:54 PM,15.1,10.0,80,30.12,1.2,NNW,19.6,-,0.00,Snow,Light Snow,340,2014-01-02 20:54:00
4:54 PM,14.0,10.0,84,30.16,1.8,NNW,18.4,-,0.00,Snow,Light Snow,340,2014-01-02 21:54:00
5:22 PM,12.2,8.6,85,30.14,2.0,NNW,20.7,25.3,0.00,Snow,Light Snow,340,2014-01-02 22:22:00
5:54 PM,12.9,8.1,81,30.21,3.0,NNW,19.6,27.6,0.00,Snow,Light Snow,340,2014-01-02 22:54:00
6:51 PM,12.2,6.8,79,30.21,8.0,NNW,17.3,-,0.00,Snow,Light Snow,340,2014-01-02 23:51:00
6:54 PM,12.9,7.0,77,30.25,7.0,North,17.3,-,0.00,Snow,Light Snow,350,2014-01-02 23:54:00
7:54 PM,12.9,6.1,74,30.29,10.0,NNW,15.0,-,0.00,,Overcast,340,2014-01-03 00:54:00
8:54 PM,12.0,3.0,67,30.31,10.0,NNW,13.8,-,N/A,,Overcast,340,2014-01-03 01:54:00
9:54 PM,10.9,-0.0,61,30.33,10.0,North,11.5,-,N/A,,Partly Cloudy,350,2014-01-03 02:54:00
10:54 PM,7.0,-2.0,67,30.35,10.0,NW,9.2,-,N/A,,Partly Cloudy,310,2014-01-03 03:54:00
11:54 PM,7.0,-0.9,70,30.38,10.0,NW,8.1,-,N/A,,Scattered Clouds,310,2014-01-03 04:54:00